Regional Weather Roundup
Issued by NWS

Home | Current Version | Previous Version | Text Only | Print | Product List | Glossary On
Versions: 1 2 3 4 5 6 7 8 9 10 11 12 13 14 15 16 17 18 19 20 21 22 23 24 25 26 27 28 29 30 31 32 33 34 35 36 37 38 39 40 41 42 43 44 45 46 47 48 49 50
000
ASUS45 KBOI 291710
RWRID
WEATHER ROUNDUP FOR IDAHO
NATIONAL WEATHER SERVICE BOISE ID
1100 AM MDT TUE JUL 29 2014

NOTE: "FAIR" INDICATES FEW OR NO CLOUDS BELOW 12000 FEET
WITH NO SIGNIFICANT WEATHER AND/OR OBSTRUCTIONS TO VISIBILITY

IDZ012-014-291800-
SOUTHWEST IDAHO


CITY           SKY/WX    TMP DP  RH WIND       PRES   REMARKS
BOISE          CLOUDY    85  50  29 N5        30.11F
CALDWELL       NOT AVBL
MOUNTAIN HOME  MOSUNNY   82  54  37 E6        30.12F
$$

IDZ016-017-291800-
SOUTHCENTRAL IDAHO


CITY           SKY/WX    TMP DP  RH WIND       PRES   REMARKS
BURLEY         PTSUNNY   76  59  55 NE7       30.18S
JEROME         PTSUNNY   79  55  43 NE9       30.19S
TWIN FALLS     MOSUNNY   82  54  37 N14       30.19S
$$

IDZ019>023-291800-
SOUTHEAST IDAHO


CITY           SKY/WX    TMP DP  RH WIND       PRES   REMARKS
IDAHO FALLS    CLOUDY    67  56  67 CALM      30.26R
POCATELLO      PTSUNNY   67  63  87 NE5       30.24S
REXBURG        LGT RAIN  67  55  65 CALM      30.26R
$$

IDZ006-010-011-018-031-032-291800-
CENTRAL IDAHO MOUNTAINS


CITY           SKY/WX    TMP DP  RH WIND       PRES   REMARKS
MCCALL         MOSUNNY   73  51  46 CALM      30.25F
HAILEY         MOSUNNY   73  54  49 SE9       30.27F
STANLEY          N/A     69  47  45 VRB6      30.36F
SALMON         SUNNY     73  46  38 CALM      30.18F
CHALLIS        SUNNY     73  43  33 E3        30.26F
$$

IDZ002-004-006-007-026-291800-
NORTHERN IDAHO


CITY           SKY/WX    TMP DP  RH WIND       PRES   REMARKS
LEWISTON       SUNNY     85  49  28 CALM      30.06S
LOWELL           N/A     76  55  48 CALM      30.09F
COEUR D`ALENE  SUNNY     81  54  39 E12       30.10F
MULLAN PASS    SUNNY     76  44  32 CALM      30.35S
$$



USA.gov is the U.S. government's official web portal to all federal, state and local government web resources and services.